Regional Weather Roundup
Issued by NWS

Home | Current Version | Previous Version | Graphics & Text | Print | Product List | Glossary On
Versions: 1 2 3 4 5 6 7 8 9 10 11 12 13 14 15 16 17 18 19 20 21 22 23 24 25 26 27 28 29 30 31 32 33 34 35 36 37 38 39 40 41 42 43 44 45 46 47 48 49 50
000
ASUS43 KLSX 221507
RWRMO

WEATHER SUMMARY FOR MISSOURI
NATIONAL WEATHER SERVICE SPRINGFIELD MO
900 AM CST SUN JAN 22 2017

NOTE: "FAIR" INDICATES FEW OR NO CLOUDS BELOW 12,000 FEET WITH NO
       SIGNIFICANT WEATHER AND/OR OBSTRUCTIONS TO VISIBILITY.
       CURRENT SKY AND/OR WEATHER CONDITIONS ARE NOT AVAILABLE FOR
       CHILLICOTHE AND FARMINGTON.

MOZ001>031-035>038-043-044-053-054-221600-
...NORTHERN AND WESTERN MISSOURI...

CITY           SKY/WX    TMP DP  RH WIND       PRES   REMARKS
KANSAS CTY INT CLOUDY    42  37  82 N12       29.66R
KANSAS C DTWN  CLOUDY    46  41  82 N10       29.66R
LEE`S SUMMIT   LGT RAIN  44  42  93 N8        29.66R
ST JOSEPH      MOSUNNY   35  34  96 N14       29.70R WCI  26
CHILLICOTHE      N/A     37  36  96 N7        29.68R
KIRKSVILLE     CLOUDY    40  39  97 N5        29.65R FOG

$$
MOZ066>068-077>081-088>096-101>105-221600-
...SOUTHWEST MISSOURI...

CITY           SKY/WX    TMP DP  RH WIND       PRES   REMARKS
SPRINGFIELD    CLOUDY    49  47  93 NE20      29.46R
JOPLIN         RAIN      48  47  96 N15G22    29.50R FOG
BRANSON        LGT RAIN  52  52 100 NE5       29.42R VSB 1/4

$$
MOZ032>034-039>042-045>050-055>058-069>072-221600-
...CENTRAL MISSOURI...

CITY           SKY/WX    TMP DP  RH WIND       PRES   REMARKS
COLUMBIA       CLOUDY    45  41  86 N13       29.58R
JEFFERSON CITY CLOUDY    46  42  86 N10G21    29.56S
ROLLA          CLOUDY    47  45  93 N13       29.49R FOG
SEDALIA        LGT RAIN  45  43  93 N14       29.60S FOG
WHITEMAN AFB   LGT RAIN  44  44 100 N12       29.61R FOG
WARRENSBURG    CLOUDY    43  41  93 N7        29.63R FOG
OSAGE BEACH    CLOUDY    47  44  90 N8G16     29.53R

$$
MOZ051-052-059>065-221600-
...EAST CENTRAL MISSOURI...

CITY           SKY/WX    TMP DP  RH WIND       PRES   REMARKS
ST LOUIS INTL  CLOUDY    48  42  80 N7        29.53S
SPIRIT OF STL  CLOUDY    48  44  86 N12       29.52F FOG
ST CHARLES     CLOUDY    46  43  89 N10       29.53S FOG

$$
MOZ072>076-082>087-097>100-106>115-221600-
...SOUTH CENTRAL AND SOUTHEAST MISSOURI...

CITY           SKY/WX    TMP DP  RH WIND       PRES   REMARKS
CAPE GIRARDEAU CLOUDY    52  49  89 E6        29.44R
FARMINGTON     CLOUDY    51  50  96 N8        29.48R FOG
POPLAR BLUFF   CLOUDY    55  52  89 E3        29.43R
WEST PLAINS    LGT RAIN  54  53  97 NE8       29.44F

$$



USA.gov is the U.S. government's official web portal to all federal, state and local government web resources and services.